sat.trackr.live / text

‹ back to catalog

STARLINK-5757

NORAD 55580 · 2023-020M

PAYLOAD ACTIVE UNKNOWN

§ Identity

Operator
Country
US
Launch date
2023-02-12
Launch site
AFETR
Launch vehicle
Mass (kg)
RCS (m²)

Purposes: comms

External: N2YO · Heavens-Above · Gunter

§ Orbital elements

Epoch: 2026-09-20T04:19:40.091232Z

Period
94.27 min
Inclination
43.0021°
Eccentricity
0.0001458
Mean motion
15.27572862 rev/d
Perigee alt
482.1 km
Apogee alt
484.1 km
Semi-major
6,861.2 km
B*
3.4018e-5
RAAN
321.1703°
Arg perigee
272.9465°
Mean anomaly
87.1220°
Rev number
19,895

§ Raw data

STARLINK-57571 55580U 23020M   26263.18032513  .00000674  00000+0  34018-4 0  99982 55580  43.0021 321.1703 0001458 272.9465  87.1220 15.27572862198952

JSON: /api/v1/satellites/55580 · /tle

For live sub-satellite position, see the globe view (requires WebGL).

§ Visibility from observer

Set your observer location to see the next 7 days of passes ≥ 10°. The values pass through the URL so the page stays shareable.

No JS? Fill the form by hand. The geolocation button needs JavaScript.